Home > Time Zones > World Clock > Weather > France > Lens > Past weeks

Flag for France Weather past 2 weeks in Lens, France

54 °F

Mostly cloudy.

Feels Like: 48 °F
Forecast: 52 / 57 °F
Wind: 24 mph from Southwest

Location: Lille Airport

Current Time: Nov 30, 2015 at 3:10:05 PM

Latest Report: Nov 30, 2015 at 2:30 PM

Visibility: N/A

Pressure: 30.04 "Hg

Humidity: 77%

Dew point: 46 °F

Location of LensLocation

Historic Weather in Lens — Graph


Lens temperature yesterday

Maximum temperature yesterday: 55 °F (at 7:00 PM)
Minimum temperature yesterday: 46 °F (at 12:00 AM)
Average temperature yesterday: 52 °F

Past Weeks' High & Low Weather Summary

High61 °F (Nov 17, 3:30 PM)100% (Nov 19, 6:00 PM)30.27 "Hg (Nov 19, 6:00 PM)
Low28 °F (Nov 23, 6:00 AM)63% (Nov 18, 1:00 PM)29.42 "Hg (Nov 21, 1:00 PM)
Average46 °F87%29.91 "Hg
* Reported Nov 15 2:00 PM — Nov 30 2:00 PM, Lens, Weather by CustomWeather, © 2015

Note: Actual official high and low records may vary slightly from our data, if they occured in-between our weather recording intervals... More about our weather records


Lens weather history for previous 24 hours

Time TempWeatherWind HumidityBarometerVisibility
2:00 PM
Mon, Nov 30
54 °FMostly cloudy.26 mph77%30.07 "HgN/A
1:30 PM54 °FPartly sunny.23 mph82%30.07 "HgN/A
1:00 PM54 °FOvercast.22 mph77%30.07 "HgN/A
12:30 PM52 °FMostly cloudy.20 mph88%30.09 "HgN/A
12:00 PM52 °FMostly cloudy.21 mph94%30.09 "HgN/A
11:30 AM52 °FPartly sunny.20 mph88%30.09 "HgN/A
11:00 AM52 °FDrizzle. Mostly cloudy.18 mph88%30.09 "HgN/A
10:30 AM54 °FOvercast.20 mph82%30.09 "HgN/A
10:00 AM54 °FOvercast.18 mph82%30.09 "HgN/A
9:30 AM52 °FMostly cloudy.16 mph94%30.09 "HgN/A
9:00 AM50 °FLight rain. Mostly cloudy.9 mph100%30.09 "Hg4 mi
8:00 AM50 °FLight rain. Passing clouds.7 mph88%30.12 "HgN/A
7:30 AM50 °FLight rain. Mostly cloudy.6 mph88%30.12 "HgN/A
7:00 AM50 °FLight rain. Mostly cloudy.9 mph88%30.12 "HgN/A
6:30 AM50 °FLight rain. Mostly cloudy.8 mph82%30.12 "HgN/A
6:00 AM50 °FMostly cloudy.8 mph88%30.12 "HgN/A
5:30 AM50 °FPassing clouds.8 mph88%30.12 "HgN/A
4:30 AM50 °FMostly cloudy.9 mph88%30.09 "HgN/A
4:00 AM50 °FMostly cloudy.12 mph88%30.09 "HgN/A
3:30 AM52 °FPartly cloudy.17 mph88%30.09 "HgN/A
3:00 AM54 °FRain. Mostly cloudy.20 mph82%30.07 "HgN/A
2:30 AM54 °FPassing clouds.16 mph82%30.04 "HgN/A
1:30 AM54 °FPassing clouds.17 mph82%30.04 "HgN/A
1:00 AM54 °FMostly cloudy.24 mph82%30.01 "HgN/A
12:30 AM54 °FPartly cloudy.18 mph88%30.01 "HgN/A
12:00 AM52 °FPassing clouds.15 mph94%30.01 "HgN/A
11:30 PM
Sun, Nov 29
54 °FRain. Mostly cloudy.24 mph88%29.98 "Hg4 mi
11:00 PM54 °FLight rain. Mostly cloudy.25 mph88%29.98 "HgN/A
10:00 PM54 °FOvercast.26 mph82%29.95 "HgN/A
9:30 PM54 °FMostly cloudy.28 mph82%29.95 "HgN/A
9:00 PM55 °FMostly cloudy.30 mph77%29.95 "HgN/A
8:30 PM55 °FOvercast.31 mph77%29.95 "HgN/A
8:00 PM55 °FMostly cloudy.32 mph77%29.92 "HgN/A
7:30 PM55 °FMostly cloudy.30 mph72%29.89 "HgN/A
7:00 PM55 °FMostly cloudy.31 mph77%29.89 "HgN/A
6:30 PM54 °FLight rain. Overcast.29 mph82%29.89 "HgN/A
6:00 PM54 °FOvercast.26 mph82%29.89 "HgN/A
5:30 PM54 °FOvercast.28 mph82%29.89 "HgN/A
5:00 PM54 °FMostly cloudy.26 mph82%29.89 "HgN/A
4:30 PM54 °FMostly cloudy.25 mph82%29.89 "HgN/A
4:00 PM54 °FMostly cloudy.22 mph82%29.89 "HgN/A
3:30 PM54 °FMostly cloudy.25 mph77%29.89 "HgN/A
3:00 PM54 °FMostly cloudy.26 mph77%29.89 "HgN/A
Weather by CustomWeather, © 2015

See weather overviewHow to use our weather pages